Myrtle Beach, SC

9:57 PM EDT on April 28, 2017 (GMT -0400)
Myrtle Beach International

Weather History for KMYR - October, 2012

Change the Weather History Date:

Monday, October 8, 2012

  Actual Average Record
Temperature  
Mean Temperature 58 °F -  
Max Temperature 64 °F 74 °F 87 °F (2007)
Min Temperature 51 °F 57 °F 42 °F (1991)
Degree Days  
Heating Degree Days 8    
Growing Degree Days 8 (Base 50)    
Moisture  
Dew Point 49 °F    
Average Humidity 69    
Maximum Humidity 72    
Minimum Humidity 63    
Precipitation  
Precipitation 0.03 in - - ()
Sea Level Pressure  
Sea Level Pressure 30.08 in    
Wind  
Wind Speed 13 mph (North)    
Max Wind Speed 17 mph    
Max Gust Speed 16 mph    
Visibility 9 miles    
Events Rain    
Averages and records for this station are not official NWS values.
T = Trace of Precipitation, MM = Missing Value Source: NWS Daily Summary

Daily Weather History Graph

Daily Weather History Graph

Search for Another Location

Airport or City:

Trip Planner

Search our weather history database for the weather conditions in past years. The results will help you decide how hot, cold, wet, or windy it might be!

Date:

Astronomy

Oct. 08, 2012 Rise Set
Actual Time 7:15 AM EDT 6:50 PM EDT
Civil Twilight 6:50 AM EDT 7:15 PM EDT
Nautical Twilight 6:21 AM EDT 7:43 PM EDT
Astronomical Twilight 5:52 AM EDT 8:12 PM EDT
Moon 12:12 AM EDT (10/8) 2:20 PM EDT (10/8)
Length of Visible Light 12h 24m
Length of Day
11h 34m
Waning Gibbous, 46% of the Moon is Illuminated
Oct 8
Waning Gibbous
Oct 15
New
Oct 21
First Quarter
Oct 29
Full
Nov 6
Last Quarter

Hourly Weather History & Observations

Time (EDT) Temp. Dew Point Humidity Pressure Visibility Wind Dir Wind Speed Gust Speed Precip Events Conditions
12:15 AM 62.6 °F 51.8 °F 68% 30.08 in 10.0 mi North 12.7 mph - N/A   Mostly Cloudy
12:35 AM 60.8 °F 51.8 °F 72% 30.07 in 10.0 mi North 12.7 mph - N/A   Mostly Cloudy
12:55 AM 60.8 °F 51.8 °F 72% 30.06 in 10.0 mi North 12.7 mph - N/A   Overcast
1:15 AM 60.8 °F 51.8 °F 72% 30.07 in 10.0 mi North 10.4 mph - N/A   Overcast
1:35 AM 60.8 °F 51.8 °F 72% 30.08 in 10.0 mi North 15.0 mph - N/A   Overcast
1:55 AM 60.8 °F 51.8 °F 72% 30.07 in 10.0 mi North 10.4 mph - N/A   Mostly Cloudy
2:15 AM 60.8 °F 51.8 °F 72% 30.07 in 10.0 mi North 11.5 mph - N/A   Mostly Cloudy
2:35 AM 60.8 °F 48.2 °F 63% 30.07 in 10.0 mi North 16.1 mph - N/A   Overcast
2:55 AM 60.8 °F 50.0 °F 68% 30.06 in 10.0 mi North 16.1 mph - N/A   Overcast
3:15 AM 59.0 °F 50.0 °F 72% 30.06 in 10.0 mi North 12.7 mph - N/A   Mostly Cloudy
3:35 AM 60.8 °F 50.0 °F 68% 30.07 in 10.0 mi North 11.5 mph - N/A   Overcast
3:55 AM 60.8 °F 50.0 °F 68% 30.07 in 10.0 mi NNE 10.4 mph - N/A   Overcast
4:15 AM 59.0 °F 48.2 °F 67% 30.07 in 10.0 mi NNE 12.7 mph 16.1 mph N/A   Overcast
4:35 AM 59.0 °F 48.2 °F 67% 30.07 in 10.0 mi North 10.4 mph - N/A   Overcast
4:55 AM 59.0 °F 48.2 °F 67% 30.08 in 10.0 mi NNE 11.5 mph - N/A   Overcast
5:15 AM 59.0 °F 48.2 °F 67% 30.07 in 10.0 mi NNE 11.5 mph 16.1 mph N/A   Overcast
5:35 AM 59.0 °F 48.2 °F 67% 30.08 in 10.0 mi NNE 10.4 mph - N/A   Overcast
5:52 AM 57.2 °F 48.2 °F 72% 30.09 in 10.0 mi NNE 13.8 mph - N/A   Mostly Cloudy
6:50 AM 57.2 °F 48.2 °F 72% 30.10 in 10.0 mi NNE 12.7 mph - N/A   Overcast
7:50 AM 57.2 °F 48.2 °F 72% 30.11 in 10.0 mi NNE 13.8 mph - N/A   Overcast
8:50 AM 57.2 °F 46.4 °F 67% 30.13 in 10.0 mi NNE 13.8 mph - N/A   Overcast
9:45 AM 57.2 °F 46.4 °F 67% 30.13 in 10.0 mi North 13.8 mph - N/A   Overcast
10:50 AM 59.0 °F 48.2 °F 67% 30.12 in 10.0 mi NNE 11.5 mph - N/A   Overcast
11:45 AM 60.8 °F 51.8 °F 72% 30.11 in 10.0 mi NE 9.2 mph - N/A   Overcast
12:45 PM 62.6 °F 53.6 °F 72% 30.09 in 10.0 mi SE 9.2 mph - N/A   Overcast
1:50 PM 64.4 °F 53.6 °F 68% 30.05 in 10.0 mi North 9.2 mph - N/A   Overcast
2:47 PM 64.4 °F 51.8 °F 64% 30.05 in 10.0 mi North 11.5 mph - N/A   Overcast
3:48 PM 60.8 °F 48.2 °F 63% 30.04 in 3.0 mi NNW 16.1 mph - N/A   Drizzle
4:08 PM 59.0 °F 48.2 °F 67% 30.04 in 1.5 mi NNW 16.1 mph - N/A Rain Light Rain
5:50 PM 55.4 °F 46.4 °F 72% 30.05 in 4.0 mi North 17.3 mph - N/A   Overcast
6:17 PM 55.4 °F 44.6 °F 67% 30.05 in 1.0 mi North 17.3 mph - N/A Rain Rain
6:50 PM 55.4 °F 46.4 °F 72% 30.05 in 6.0 mi North 15.0 mph - N/A Rain Light Rain
7:45 PM 53.6 °F 42.8 °F 67% 30.07 in 7.0 mi North 10.4 mph - N/A   Overcast
8:50 PM 53.6 °F 44.6 °F 72% 30.07 in 10.0 mi North 11.5 mph - N/A   Overcast
11:15 PM 51.8 °F 42.8 °F 71% 30.09 in 10.0 mi NNW 13.8 mph - N/A   Overcast
11:35 PM 51.8 °F 42.8 °F 71% 30.09 in 5.0 mi NNW 10.4 mph - N/A   Overcast
11:55 PM 53.6 °F 42.8 °F 67% 30.09 in 5.0 mi North 11.5 mph - N/A   Overcast